Weather History for Morrisville, VT

Change the Weather History Date:

Tuesday, November 20, 2012

  Actual Average Record
Temperature  
Mean Temperature 33 °F 34 °F  
Max Temperature 48 °F 42 °F 56 °F (2011)
Min Temperature 18 °F 25 °F 10 °F (2008)
Degree Days  
Heating Degree Days 32 32  
Month to date heating degree days 589 559  
Since 1 July heating degree days 1317 1490  
Cooling Degree Days 0 0  
Month to date cooling degree days 0 0  
Year to date cooling degree days 408 265  
Moisture  
Dew Point 24 °F    
Average Humidity 67    
Maximum Humidity 92    
Minimum Humidity 42    
Precipitation  
Precipitation 0.00 in 0.11 in 1.11 in (1948)
Month to date precipitation 0.64 2.07  
Year to date precipitation 18.78 32.31  
Sea Level Pressure  
Sea Level Pressure 30.24 in    
Wind  
Wind Speed 0 mph (North)    
Max Wind Speed 6 mph    
Max Gust Speed 10 mph    
Visibility 9 miles    
Events      
T = Trace of Precipitation, MM = Missing Value Source: NWS Daily Summary

Daily Weather History Graph

Daily Weather History Graph

Search for Another Location

Airport:

Trip Planner

Search our weather history database for the weather conditions in past years. The results will help you decide how hot, cold, wet, or windy it might be!

Date:

Astronomy

Nov. 20, 2012 Rise Set
Actual Time 6:54 AM EST 4:17 PM EST
Civil Twilight 6:22 AM EST 4:49 PM EST
Nautical Twilight 5:46 AM EST 5:25 PM EST
Astronomical Twilight 5:11 AM EST 6:00 PM EST
Moon 12:18 PM EST (11/20) 11:56 PM EST (11/20)
Length of Visible Light 10h 27m
Length of Day
9h 23m
Waxing Crescent, 51% of the Moon is Illuminated
Nov 20
Waxing Crescent
Nov 28
Full
Dec 6
Last Quarter
Dec 13
New
Dec 20
First Quarter

Hourly Weather History & Observations

Time (EST) Temp. Dew Point Humidity Pressure Visibility Wind Dir Wind Speed Gust Speed Precip Events Conditions
12:54 AM 21.9 °F 19.0 °F 89% 30.30 in 8.0 mi Calm Calm - N/A   Clear
1:54 AM 21.9 °F 19.0 °F 89% 30.30 in 8.0 mi Calm Calm - N/A   Clear
2:54 AM 21.9 °F 18.0 °F 85% 30.30 in 7.0 mi Calm Calm - N/A   Clear
3:54 AM 19.9 °F 17.1 °F 89% 30.29 in 8.0 mi Calm Calm - N/A   Clear
4:54 AM 19.9 °F 17.1 °F 89% 30.29 in 9.0 mi Calm Calm - N/A   Clear
5:54 AM 19.9 °F 16.0 °F 85% 30.29 in 8.0 mi Calm Calm - N/A   Clear
7:54 AM 23.0 °F 19.9 °F 88% 30.29 in 6.0 mi Calm Calm - N/A   Clear
8:54 AM 26.1 °F 23.0 °F 88% 30.28 in 7.0 mi Calm Calm - N/A   Clear
9:54 AM 30.0 °F 27.0 °F 88% 30.27 in 9.0 mi Calm Calm - N/A   Clear
10:54 AM 35.1 °F 28.9 °F 78% 30.25 in 10.0 mi Calm Calm - N/A   Clear
11:54 AM 42.1 °F 28.0 °F 58% 30.22 in 10.0 mi Calm Calm - N/A   Clear
12:54 PM 46.9 °F 28.0 °F 48% 30.19 in 10.0 mi Calm Calm - N/A   Partly Cloudy
1:54 PM 46.9 °F 25.0 °F 42% 30.17 in 10.0 mi North 4.6 mph - N/A   Partly Cloudy
2:54 PM 46.0 °F 28.0 °F 50% 30.17 in 10.0 mi Calm Calm - N/A   Partly Cloudy
3:54 PM 43.0 °F 28.9 °F 58% 30.19 in 10.0 mi Calm Calm - N/A   Overcast
4:54 PM 36.0 °F 28.0 °F 73% 30.20 in 9.0 mi Calm Calm - N/A   Clear
5:54 PM 35.1 °F 28.0 °F 76% 30.21 in 10.0 mi Calm Calm - N/A   Overcast
6:54 PM 34.0 °F 28.0 °F 79% 30.22 in 10.0 mi Calm Calm - N/A   Overcast
7:54 PM 33.1 °F 27.0 °F 78% 30.22 in 10.0 mi Calm Calm - N/A   Overcast
8:54 PM 32.0 °F 27.0 °F 82% 30.22 in 10.0 mi Calm Calm - N/A   Overcast
9:54 PM 30.9 °F 27.0 °F 85% 30.22 in 10.0 mi Calm Calm - N/A   Overcast
10:54 PM 30.9 °F 27.0 °F 85% 30.22 in 10.0 mi Calm Calm - N/A   Overcast
11:54 PM 30.0 °F 26.1 °F 85% 30.22 in 10.0 mi Calm Calm - N/A   Overcast